• Processing (Info)

  • MPEC 2004-S39 : 2004 SZ19

    The following Minor Planet Electronic Circular may be linked-to from your own Web pages, but must not otherwise be redistributed electronically.

    A form allowing access to any MPEC is at the bottom of this page.


    Read MPEC 2004-S38 Read MPEC 2004-S40


    M.P.E.C. 2004-S39                                Issued 2004 Sept. 22, 16:38 UT
    
         The Minor Planet Electronic Circulars contain information on unusual
             minor planets and routine data on comets.  They are published
       on behalf of Commission 20 of the International Astronomical Union by the
              Minor Planet Center, Smithsonian Astrophysical Observatory,
                              Cambridge, MA 02138, U.S.A.
    
                      Supported in part by the Brinson Foundation
                 Prepared using the Tamkin Foundation Computer Network
    
                                  MPC@CFA.HARVARD.EDU
              URL http://cfa-www.harvard.edu/iau/mpc.html  ISSN 1523-6714
    
                                       2004 SZ19
    
    Observations:
         K04S19Z* C2004 09 21.36622 03 15 53.25 -13 52 14.1          19.0   ES039704
         K04S19Z  C2004 09 21.39157 03 15 55.06 -13 53 48.8          19.5   ES039704
         K04S19Z  C2004 09 21.40370 03 15 55.84 -13 54 34.0          19.5   ES039704
         K04S19Z  C2004 09 21.41606 03 15 56.71 -13 55 20.1          19.6   ES039704
         K04S19Z 2C2004 09 22.15720 03 16 53.89 -14 40 50.3          18.2 R ES039I05
         K04S19Z 2C2004 09 22.15916 03 16 54.13 -14 40 57.1          18.8 R ES039I05
         K04S19Z  C2004 09 22.26132 03 17 01.73 -14 47 37.3          19.4 R ES039651
         K04S19Z  C2004 09 22.26299 03 17 01.79 -14 47 44.5          19.5 R ES039651
         K04S19Z  C2004 09 22.26441 03 17 01.94 -14 47 47.7          19.2 R ES039651
         K04S19Z  C2004 09 22.31011 03 17 04.94 -14 50 38.8          18.7 R ES039H06
         K04S19Z  C2004 09 22.31383 03 17 05.34 -14 50 53.6          18.7 R ES039H06
         K04S19Z  C2004 09 22.31758 03 17 05.47 -14 51 07.0          18.4 R ES039H06
         K04S19Z 8C2004 09 22.47656 03 17 16.17 -15 00 53.5          17.0 R ES039673
         K04S19Z 8C2004 09 22.49045 03 17 17.11 -15 01 44.1                 ES039673
         K04S19Z 8C2004 09 22.50434 03 17 17.96 -15 02 35.2                 ES039673
    
    Observer details:
    651 Grasslands Observatory, Tucson.  Observer J. E. McGaha.  0.62-m f/5.1
        Newtonian reflector + CCD.
    673 Table Mountain Observatory, Wrightwood.  Observer D. Mayes.  0.6-m
        reflector + CCD.
    704 Lincoln Laboratory ETS, New Mexico.  Observers M. Blythe, F. Shelly,
        M. Bezpalko, R. Huber, L. Manguso, D. Torres, R. Kracke, M. McCleary,
        H. Stange, A. Milner.  Measurers J. Stuart, R. Sayer, J. Evans, J. Kommers.
        1.0-m f/2.15 reflector + CCD.
    H06 New Mexico Skies Observatory.  Observer R. Hutsebaut.  0.25-m reflector
        + CCD.
    I05 Las Campanas Observatory-TIE.  Observers G. Masi, F. Mallia.  Measurer
        G. Masi.  0.36-m SoTIE reflector + CCD.
    
    Orbital elements:
    2004 SZ19
    Epoch 2004 Sept. 12.0 TT = JDT 2453260.5                MPC
    M  11.31662              (2000.0)            P               Q
    n   0.38948526     Peri.  169.89909     +0.94319103     +0.32383993
    a   1.8569863      Node   170.18649     -0.32706296     +0.94431588
    e   0.3333340      Incl.   25.83895     -0.05848509     -0.05826850
    P   2.53           H   19.0           G   0.15
    From 15 observations 2004 Sept. 21-22.
    
    Ephemeris:
    2004 SZ19                a,e,i = 1.86, 0.33, 26                  q = 1.2380
    Date    TT    R. A. (2000) Decl.     Delta      r     Elong.  Phase     V
    2004 09 22    03 16.68   -14 31.2    0.391    1.285   128.7    37.5    19.0
    2004 10 02    03 25.59   -23 54.0    0.421    1.311   129.9    35.9    19.2
    2004 10 12    03 27.67   -31 04.2    0.464    1.341   129.3    35.1    19.4
    2004 10 22    03 24.22   -35 50.9    0.518    1.375   127.8    34.9    19.7
    2004 11 01    03 17.51   -38 24.5    0.580    1.412   125.8    34.8    20.0
    2004 11 11    03 09.97   -39 05.1    0.648    1.452   123.5    34.7    20.3
    2004 11 21    03 03.78   -38 14.4    0.722    1.493   121.0    34.6    20.6
    2004 12 01    03 00.33   -36 15.4    0.801    1.536   118.2    34.4    20.9
    2004 12 11    03 00.10   -33 28.4    0.885    1.580   115.3    34.3    21.2
    2004 12 21    03 03.10   -30 09.9    0.976    1.625   112.0    34.1    21.4
    2004 12 31    03 09.01   -26 34.0    1.072    1.669   108.5    34.0    21.7
    2005 01 10    03 17.38   -22 51.0    1.175    1.714   104.8    33.7    21.9
    
    Kyle E. Smalley              (C) Copyright 2004 MPC           M.P.E.C. 2004-S39
    

    Read MPEC 2004-S38 Read MPEC 2004-S40


    MPEC number:

    Enter an MPEC number in one of the following forms:

    • 1997-B01 (the full form)
    • J97B01 (the packed version of the full form)
    • B01 (the abbreviated form)